CAPE
854 480 893 1637 242 13 19 40 22 3 1 1 86 173 99 125 0 0 0 97 697 899 1419 1721 2058 2140 2061 2126 1947 1993 2079 2016 1994 2182 2301 2225 2106 2056 2212 2308 2140 2229 2013 1885 1901 1911 1937 1912 1941
775 783 1142 679 43 2 32 27 14 19 16 4 21 57 88 118 103 5 137 629 607 846 1025 1602 2360 2310 1970 2020 2111 2040 1964 2038 2148 2123 1907 2288 2232 2340 2218 2152 2213 1951 1852 2009 1927 1218 1153 1528 1786
1213 1644 1085 412 24 9 0 40 11 17 27 0 3 10 57 172 194 153 262 593 687 906 1321 1767 2073 2047 1961 1983 2017 1900 1436 1177 1949 2250 2155 2025 2296 2302 2229 2196 2228 1848 1548 1419 1447 1496 1572 1414 1055
180 64 904 87 39 47 24 27 18 0 0 0 5 28 110 253 223 118 492 661 641 1106 1496 2298 2210 1983 1958 1675 1470 1672 1674 1260 1013 1716 1773 1869 2331 2332 2269 1976 1688 1366 1106 918 927 925 1019 1176 1321
729 170 289 85 59 33 43 6 0 0 0 2 1 81 166 329 415 521 571 664 1012 1248 1589 1832 2524 2098 1762 1536 1404 2028 2064 1736 1048 1109 1527 1539 1976 2096 1938 1711 1506 1226 880 884 1260 1297 978 1183 1369
35 652 25 35 42 58 80 8 0 0 3 39 17 24 102 339 441 589 681 864 1050 1377 1617 1786 2304 2112 1504 1975 2120 2131 2224 2103 1864 1065 1331 1472 1693 1749 1673 1497 1341 1110 836 821 1175 1065 911 1016 1017
59 412 112 4 43 77 21 10 8 0 8 50 66 64 150 361 492 641 700 685 1159 1352 1165 1509 1776 1429 1688 2046 2025 1887 1428 1409 1290 1147 1414 1536 1618 1586 1537 1439 1346 1132 1015 812 770 1087 1255 1217 1366
66 384 360 19 32 21 43 15 5 0 0 93 149 209 300 361 499 358 505 664 898 1016 1161 1365 1409 1517 1248 1691 1913 1785 1772 1639 1373 1455 1556 1661 1641 1624 1550 2086 2039 1379 1256 987 725 807 1035 1594 1922
113 517 32 24 60 51 40 2 0 0 0 42 16 220 268 336 300 231 273 563 717 782 901 1114 1184 1324 992 1290 1388 2139 1856 1954 1899 1677 1717 1933 1364 1297 1463 1669 1644 1719 1571 1229 1385 1533 1501 2170 1616
380 463 41 29 36 68 34 1 1 0 0 16 148 229 272 275 246 233 273 338 455 500 723 994 932 1110 812 998 1071 1227 1265 1396 1394 1413 1392 1796 1736 1576 1718 1813 2105 2803 2845 3312 2653 2918 2240 592 474
571 371 26 78 73 90 72 0 0 4 0 20 186 217 208 179 208 241 213 284 411 405 702 688 744 937 979 291 514 548 693 937 1082 594 1141 1195 1386 1244 1390 1367 1453 2095 3339 327 1133 336 372 584 404
337 261 50 103 109 39 27 8 11 0 0 4 127 154 178 215 224 169 221 216 406 389 493 289 547 800 866 524 341 192 612 606 841 2 140 34 693 943 1494 1106 1251 1339 829 0 657 94 223 94 227
64 144 31 38 28 41 59 114 6 0 0 0 0 124 142 186 143 128 188 156 264 375 54 0 125 370 518 527 315 284 442 223 204 11 0 0 419 660 1378 628 861 1489 520 253 112 195 147 178 347
322 254 4 63 66 162 80 27 0 0 0 0 0 0 5 64 70 58 101 139 114 104 6 0 82 374 492 425 194 301 59 4 0 501 0 34 128 2 1328 174 671 571 488 209 4 59 105 74 442
350 220 22 11 0 47 118 53 0 0 0 0 0 0 0 0 0 76 149 136 129 45 35 123 455 597 319 94 4 0 0 0 0 263 597 416 59 155 1026 1194 1354 1183 532 341 0 0 3 4 444
254 105 30 9 17 1 45 56 0 0 0 0 0 0 0 8 6 6 97 137 99 15 186 303 703 707 342 572 440 514 1137 311 243 180 969 91 64 830 586 795 1051 684 223 430 93 42 148 0 148
32 89 54 133 111 45 24 32 27 0 0 0 0 0 7 37 8 32 48 27 60 257 57 113 375 556 553 449 924 873 594 389 231 545 1088 774 686 837 277 445 605 837 169 1273 753 517 358 98 0
16 188 34 39 95 25 2 0 0 0 0 0 0 57 80 20 104 64 6 25 448 327 42 7 210 163 465 835 1148 1005 623 572 732 428 713 784 578 348 264 393 648 763 668 1079 706 670 713 797 548
6 151 195 227 254 48 40 10 0 0 0 0 0 4 10 80 90 101 115 128 520 387 54 0 233 136 506 684 791 727 908 1069 296 571 543 406 209 751 1081 923 922 1381 1255 1044 761 665 706 439 336
11 142 133 282 350 159 30 0 8 0 0 0 0 0 25 14 27 91 128 286 363 336 123 8 225 260 526 439 418 801 1100 397 750 153 518 849 721 418 766 886 1000 1427 1179 672 782 1257 867 476 527
8 55 303 490 510 361 68 17 0 0 15 0 0 0 4 14 36 69 183 396 320 412 238 199 604 493 622 474 686 1063 1003 684 630 411 536 393 496 374 301 165 399 441 1271 1427 1321 1364 1390 1438 1117
162 115 415 366 60 8 69 4 0 0 0 0 0 0 6 11 40 74 250 304 346 491 267 426 434 456 551 435 917 656 585 557 452 300 298 76 247 687 576 237 82 52 508 756 1002 1490 1304 1296 1200
217 110 491 276 84 82 79 4 0 0 0 0 11 0 31 28 42 138 247 350 303 336 346 501 396 267 276 586 769 841 644 525 341 18 0 0 0 563 760 215 21 0 276 478 305 715 774 978 1248
0 235 487 256 15 102 53 0 0 0 0 0 0 16 124 60 84 177 313 442 327 450 592 763 703 742 503 699 723 577 625 411 161 98 90 95 248 162 303 167 0 23 224 289 380 390 574 857 894
0 0 0 0 251 188 29 48 53 0 0 0 53 11 110 161 120 191 303 431 515 691 743 999 955 213 69 34 72 203 186 125 56 63 0 0 4 0 0 0 4 17 13 20 1 0 0 227 369
0 0 0 0 0 2 56 139 249 57 9 291 404 460 298 536 230 310 335 376 586 793 1053 493 0 57 0 0 0 0 0 0 0 0 0 0 0 0 0 0 0 0 0 0 0 0 0 0 0
0 0 0 0 0 0 127 471 451 381 450 355 34 302 548 498 722 695 712 585 42 27 0 0 0 0 0 0 0 0 0 0 0 0 0 0 0 0 0 0 0 0 0 0 0 0 0 0 0
0 0 0 0 0 0 76 632 469 433 222 456 327 190 67 24 12 104 168 158 51 0 0 0 0 0 0 0 0 0 0 0 0 0 0 0 0 0 0 0 0 0 0 0 0 0 0 0 0
0 0 0 0 0 0 74 643 1170 633 467 98 1 5 4 4 2 1 4 5 4 1 0 0 0 0 0 0 0 0 0 0 0 0 0 0 0 0 0 0 0 0 0 0 0 0 0 0 0
0 0 0 0 0 0 0 907 752 311 81 5 7 13 3 2 1 0 0 0 0 0 0 0 0 0 0 0 0 0 0 0 0 0 0 0 0 0 0 0 0 0 0 0 0 0 0 0 0
CIN
-65 -80 -74 -27 -70 -71 -12 -17 -34 -36 -14 -89 -62 -87 -153 -129 0 0 -19 -67 -19 -8 -2 0 0 0 0 0 0 0 0 0 0 0 0 0 0 0 0 0 0 0 0 0 0 0 0 0 -5
-68 -47 -58 -70 -38 -20 -11 -29 -69 -82 -148 -187 -196 -145 -169 -126 -172 -233 -113 -16 -38 -18 -10 -1 0 0 0 0 0 0 0 0 0 0 0 0 0 0 0 0 0 0 0 0 0 -12 -22 -12 -8
-44 -3 -19 -68 -37 -58 -2 -42 -84 -111 -148 0 -201 -222 -206 -110 -92 -109 -69 -21 -32 -21 -8 -1 0 0 0 0 0 0 -1 -10 0 0 0 0 0 0 0 0 0 0 0 -2 -6 -5 -12 -21 -45
-146 -179 -50 -62 -27 -39 -31 -115 -90 0 0 -3 -173 -179 -101 -46 -81 -140 -38 -32 -42 -7 -4 0 0 0 0 0 -1 -1 0 -4 -18 0 0 0 0 0 0 0 0 -7 -28 -48 -52 -45 -44 -47 -49
-94 -127 -59 -93 -26 -46 -46 -65 -1 -40 0 -158 -61 -134 -113 -21 -45 -50 -39 -39 -33 -5 -3 -1 0 0 0 -1 -8 0 0 0 -35 -36 -2 -6 0 0 -1 -7 -26 -48 -80 -83 -45 -44 -59 -59 -57
-206 -91 -70 -29 -13 -29 -68 -73 0 0 -51 -170 -193 -222 -128 -17 -23 -22 -40 -43 -44 -21 -4 0 0 0 -6 0 0 0 0 0 -3 -51 -31 -35 -32 -36 -45 -59 -69 -88 -108 -111 -64 -67 -74 -72 -67
-237 -126 -67 -16 -6 -50 -26 -91 -141 -48 -206 -156 -169 -229 -137 -29 -24 -33 -47 -68 -31 -23 -30 -4 -2 -5 -7 0 0 0 -14 -23 -44 -62 -56 -63 -67 -79 -91 -95 -100 -104 -122 -133 -129 -93 -74 -75 -63
-365 -190 -87 -51 -68 -26 -37 -75 -132 0 0 -149 -153 -170 -133 -59 -20 -49 -59 -59 -54 -46 -33 -28 -28 -22 -29 -12 -4 -16 -19 -37 -64 -66 -72 -83 -90 -94 -95 -75 -60 -106 -127 -139 -144 -137 -115 -76 -61
-337 -100 -43 -39 -48 -20 -68 -20 0 0 0 -173 -212 -155 -122 -77 -52 -82 -80 -34 -46 -57 -69 -60 -60 -48 -74 -71 -53 -31 -35 -34 -40 -64 -79 -80 -156 -173 -155 -111 -118 -117 -118 -123 -113 -90 -80 -43 -78
-211 -99 -51 -26 -49 -41 -55 -34 -60 -29 0 -182 -123 -82 -86 -78 -76 -94 -87 -69 -64 -83 -84 -82 -100 -81 -123 -75 -98 -106 -91 -87 -88 -98 -119 -94 -135 -157 -124 -97 -79 -56 -91 -56 -44 -13 -55 -224 -304
-177 -54 -13 -39 -46 -27 -35 -2 0 -134 0 -197 -162 -113 -87 -90 -79 -76 -95 -127 -103 -105 -86 -118 -133 -124 -120 -151 -161 -173 -162 -143 -146 -242 -196 -191 -175 -180 -169 -152 -146 -132 -74 -324 -211 -410 -368 -308 -396
-70 -37 -30 -37 -31 -44 -48 -29 -100 0 0 -177 -131 -127 -101 -61 -62 -84 -89 -117 -95 -100 -98 -148 -141 -117 -122 -130 -164 -210 -158 -189 -208 -188 -301 -386 -250 -189 -182 -151 -208 -193 -227 -20 -306 -532 -424 -518 -442
-143 -69 -28 -35 -34 -27 -20 -54 -90 0 0 0 -8 -82 -80 -71 -76 -80 -84 -93 -103 -102 -193 0 -195 -133 -115 -125 -134 -183 -162 -263 -302 -40 0 0 -212 -210 -166 -255 -252 -189 -256 -364 -493 -534 -546 -517 -369
-147 -88 -19 -67 -40 -28 -76 -74 0 0 0 0 0 0 -52 -111 -96 -91 -101 -110 -115 -134 -48 0 -192 -110 -114 -176 -229 -156 -298 -111 0 -247 0 -299 -297 -90 -182 -320 -177 -207 -229 -267 -115 -424 -624 -513 -432
-130 -48 -48 -53 0 -48 -76 -71 0 0 0 0 0 0 0 0 0 -127 -110 -132 -127 -156 -160 -189 -107 -94 -120 -187 -22 0 0 0 -9 -177 -224 -270 -176 -188 -145 -139 -107 -148 -229 -319 0 0 -48 -673 -397
-151 -136 -52 -28 -64 -12 -82 -73 -1 0 0 0 0 0 -4 -46 -75 -116 -113 -126 -131 -178 -127 -126 -66 -86 -108 -112 -154 -150 -112 -165 -194 -305 -178 -206 -36 -134 -135 -111 -91 -175 -269 -280 -407 -468 -325 0 -426
-206 -90 -119 -30 -30 -72 -72 -88 -80 0 0 0 0 -2 -28 -48 -83 -105 -136 -143 -128 -117 -161 -126 -105 -100 -105 -101 -93 -104 -103 -132 -198 -141 -141 -160 -130 -127 -151 -125 -125 -141 -238 -134 -210 -258 -290 -283 0
-108 -118 -149 -86 -101 -36 -27 0 0 0 0 0 0 -79 -92 -72 -103 -154 -87 -181 -83 -96 -171 -224 -135 -128 -127 -99 -95 -102 -126 -128 -134 -188 -151 -117 -138 -119 -130 -137 -104 -153 -139 -100 -111 -106 -151 -137 -195
-269 -93 -97 -57 -55 -116 -239 -149 -1 0 0 0 0 -248 -84 -125 -115 -109 -130 -115 -81 -95 -152 0 -132 -144 -123 -108 -86 -100 -70 -84 -196 -173 -187 -175 -171 -140 -110 -129 -111 -78 -53 -65 -100 -104 -72 -94 -176
-274 -198 -145 -114 -87 -86 -155 -6 -47 0 0 0 0 0 -238 -218 -186 -146 -139 -113 -134 -105 -144 -51 -128 -155 -119 -106 -131 -88 -90 -183 -163 -234 -213 -194 -187 -203 -145 -164 -171 -108 -81 -78 -90 -81 -78 -148 -161
-293 -218 -99 -126 -71 -138 -171 -176 0 0 -234 0 0 0 -325 -243 -188 -181 -164 -133 -146 -117 -166 -179 -118 -149 -121 -111 -106 -78 -111 -146 -149 -189 -218 -257 -209 -254 -274 -271 -238 -222 -111 -77 -91 -59 -43 -40 -77
-229 -169 -122 -189 -230 -206 -208 -264 0 0 0 -11 0 0 -258 -282 -225 -241 -158 -162 -156 -147 -185 -167 -157 -151 -122 -126 -71 -83 -84 -81 -170 -195 -241 -310 -231 -175 -214 -263 -333 -341 -187 -128 -117 -65 -58 -52 -42
-148 -199 -214 -195 -298 -235 -210 -319 0 0 0 0 -389 0 -232 -271 -247 -231 -206 -202 -204 -170 -189 -134 -149 -157 -118 -101 -85 -92 -129 -152 -177 -260 0 -19 0 -168 -158 -263 -347 0 -204 -146 -156 -101 -92 -80 -50
0 -144 -117 -157 -226 -158 -225 0 -1 0 0 0 -9 -314 -224 -258 -222 -223 -206 -204 -196 -154 -110 -150 -137 -130 -178 -153 -122 -107 -93 -135 -181 -196 -47 -124 -184 -262 -211 -244 0 -230 -185 -159 -124 -138 -98 -57 -72
0 0 0 0 -54 -91 -235 -158 -144 0 0 0 -335 -366 -255 -190 -214 -210 -224 -218 -171 -129 -129 -175 -135 -168 -342 -360 -311 -221 -222 -202 -66 -58 0 0 -112 0 0 0 -233 -302 -297 -324 -75 0 -11 -123 -116
0 0 0 0 0 -31 -269 -93 -54 -341 -328 -273 -204 -280 -195 -189 -156 -147 -131 -161 -151 -127 -143 -229 0 -322 0 0 0 0 0 0 0 0 0 0 0 0 0 0 0 0 0 0 0 0 0 0 0
0 0 0 0 0 0 -153 -138 -189 -327 -366 -300 -71 -348 -269 -305 -261 -243 -263 -308 -670 -731 -27 -79 0 0 0 0 0 0 0 0 0 0 0 0 0 0 0 0 0 0 0 0 0 0 0 0 0
0 0 0 0 0 0 -53 -92 -117 -230 -417 -402 -409 -367 -376 -425 -249 -238 -313 -302 -322 0 0 0 0 0 0 0 0 0 0 0 0 0 0 0 0 0 0 0 0 0 0 0 0 0 0 0 0
0 0 0 0 0 0 -23 -50 -145 -283 -297 -394 0 0 0 0 0 0 0 0 0 0 0 0 0 0 0 0 0 0 0 0 0 0 0 0 0 0 0 0 0 0 0 0 0 0 0 0 0
0 0 0 0 0 0 0 -143 -204 -405 -423 -97 0 0 0 0 0 0 0 0 0 0 0 0 0 0 0 0 0 0 0 0 0 0 0 0 0 0 0 0 0 0 0 0 0 0 0 0 0
Wind_Speed
4 2 2 3 3 4 4 7 8 11 3 4 6 11 12 9 4 5 9 10 11 8 6 8 11 14 14 13 13 12 12 11 12 12 13 13 14 14 13 13 13 13 12 12 11 10 11 11 11
4 3 2 2 4 4 3 9 14 13 12 17 12 8 10 6 8 13 10 12 12 9 5 6 11 12 13 13 12 13 12 11 11 11 11 11 13 13 13 13 12 12 10 10 9 8 8 8 9
8 3 2 1 3 3 5 12 16 14 12 7 8 13 6 8 13 11 14 14 11 8 5 9 12 12 12 12 13 12 11 11 10 11 11 12 12 12 12 11 10 10 9 8 6 5 5 6 7
4 3 3 3 4 1 10 13 18 15 13 11 13 12 7 6 5 11 17 15 12 8 5 10 12 12 11 11 12 11 10 11 11 10 9 9 10 11 11 10 9 8 7 5 4 4 3 3 3
4 1 2 1 5 6 5 15 19 14 7 14 8 11 6 10 18 19 16 14 12 7 6 7 12 12 11 11 11 10 11 12 11 10 9 9 9 9 9 8 7 6 5 4 3 3 4 2 1
3 1 2 2 10 11 13 16 15 16 16 19 16 15 6 15 17 15 13 12 11 8 5 6 11 12 12 10 10 10 11 11 10 9 9 9 9 8 8 7 6 5 4 4 4 4 2 1 3
3 3 2 7 11 7 16 17 14 19 17 10 15 16 10 14 15 15 12 12 10 7 6 4 4 8 11 10 9 9 10 9 9 9 9 9 8 7 7 6 5 4 3 3 5 5 4 7 10
1 2 2 12 13 6 21 14 18 21 9 18 14 8 15 15 17 13 13 12 10 7 6 6 5 4 3 4 9 9 8 8 8 8 8 7 6 6 5 4 2 2 2 3 3 3 3 5 6
2 1 1 5 10 11 14 22 12 9 21 8 1 17 16 17 16 16 12 9 7 6 5 5 4 4 3 4 6 7 8 8 8 7 7 3 0 2 4 4 5 6 5 2 1 2 3 7 12
2 2 5 6 13 16 16 21 16 11 14 15 18 14 18 19 18 15 15 11 7 7 5 5 5 5 4 4 3 3 3 1 2 4 4 3 3 4 6 3 8 8 8 5 1 3 12 9 3
3 3 8 18 17 17 17 19 13 19 14 23 26 21 18 17 15 14 14 16 13 10 6 6 6 6 4 2 2 1 0 1 3 3 4 1 2 3 3 0 1 3 5 5 3 7 3 2 1
6 5 9 18 15 15 15 18 17 17 12 17 20 21 17 17 13 11 11 13 13 10 10 8 7 5 3 2 3 4 3 2 3 3 5 5 1 4 5 2 4 3 5 3 3 3 2 4 4
4 10 12 14 10 7 12 16 12 16 19 17 17 20 18 16 14 9 8 7 9 9 8 9 7 5 5 6 4 4 3 3 4 2 3 5 2 4 4 3 2 2 5 4 4 4 4 3 5
7 12 13 14 15 20 26 19 13 15 20 19 18 16 17 17 16 11 10 9 9 8 9 6 7 7 6 4 4 6 3 3 2 2 2 4 2 3 2 4 2 1 5 6 5 4 4 2 3
12 7 13 9 7 16 21 14 14 19 19 19 17 14 12 12 16 19 17 13 14 8 8 9 8 8 7 6 5 2 1 3 3 3 6 4 3 4 0 4 4 4 5 6 4 4 4 4 3
6 5 3 1 12 8 11 11 16 18 17 16 16 13 13 12 14 12 15 14 12 9 12 8 7 7 8 5 4 4 2 3 3 3 2 4 7 4 4 4 3 2 4 8 4 5 4 4 4
4 2 2 3 3 8 7 8 15 15 14 12 12 12 17 10 7 11 14 13 14 12 12 8 7 7 6 5 3 1 3 1 4 4 4 5 2 5 3 2 3 2 3 3 5 3 4 4 4
7 3 1 5 9 12 8 6 14 14 14 14 8 14 14 13 11 12 14 12 12 11 10 8 7 7 6 3 1 2 2 3 1 0 3 2 4 2 2 3 1 2 3 3 1 2 4 3 4
10 6 8 11 6 7 13 15 16 15 13 12 8 16 16 18 14 10 11 14 12 10 9 8 9 7 4 2 1 1 1 0 4 3 6 4 5 5 5 3 3 3 3 2 1 1 1 3 1
11 7 3 7 3 4 7 7 3 4 12 14 14 14 16 14 15 11 12 15 15 14 11 8 8 8 5 3 2 2 2 3 3 1 5 5 4 4 5 4 3 4 3 2 2 2 1 2 1
5 12 10 10 6 4 1 8 6 7 8 17 15 16 17 19 18 14 13 13 13 14 12 11 10 12 7 6 2 1 3 3 3 1 3 3 5 5 4 4 5 4 3 1 3 3 1 1 2
5 15 15 22 14 5 10 5 9 7 7 10 18 16 18 17 17 16 16 14 14 15 11 11 11 11 8 8 4 5 4 3 2 2 1 2 3 2 4 5 4 1 3 5 3 3 2 2 3
12 22 23 17 8 6 7 1 8 9 8 10 15 18 20 18 20 20 19 17 17 13 11 9 9 9 6 7 5 2 3 4 2 2 0 3 1 2 3 5 5 5 3 2 4 4 4 2 2
1 19 13 6 5 1 16 8 6 7 16 11 5 16 20 19 18 18 19 16 14 13 11 10 10 6 7 6 4 6 7 6 3 1 1 3 2 3 5 5 5 5 4 4 4 5 5 5 4
5 7 2 3 1 7 13 4 17 8 8 8 9 14 17 18 19 17 18 17 15 15 12 10 11 7 8 6 8 6 7 6 5 5 3 3 2 3 5 5 6 4 5 6 5 6 6 6 6
7 10 8 6 5 3 4 7 9 9 9 8 8 10 8 3 13 16 15 12 13 12 10 10 10 10 7 7 7 5 7 4 4 5 3 4 4 5 7 7 8 8 7 7 6 3 4 6 6
7 3 8 4 1 4 6 4 4 3 9 12 14 15 12 13 14 12 13 12 11 12 11 13 14 8 6 7 5 7 8 9 6 8 7 5 5 5 6 6 7 7 6 7 8 7 8 7 6
10 6 2 4 2 3 5 3 4 3 7 12 13 17 15 16 15 12 12 13 11 12 12 12 11 7 7 8 7 7 7 7 6 6 6 6 5 5 5 6 5 6 6 7 6 5 6 7 7
5 1 3 6 6 7 3 4 7 13 14 16 14 13 13 14 14 12 12 12 12 12 11 11 10 10 9 6 4 5 5 5 5 5 5 5 5 5 5 5 5 6 6 6 6 6 8 9 9
8 8 6 7 6 3 6 3 5 16 17 19 16 13 14 14 12 10 10 10 10 10 10 6 7 6 4 3 3 4 4 3 4 3 4 3 5 4 5 5 6 5 5 6 6 7 7 11 12
Wind_Direction
154 118 41 333 41 54 74 99 111 118 80 48 74 112 110 35 142 168 139 140 132 137 143 129 127 122 117 112 110 111 109 109 111 107 107 108 110 111 113 114 112 106 105 106 104 101 107 110 110
93 55 349 328 72 104 107 110 100 109 123 99 81 80 52 81 71 112 116 144 138 140 141 138 128 125 122 120 116 113 113 112 109 108 113 111 116 112 113 113 114 110 110 106 103 106 103 106 105
57 9 286 179 142 162 122 118 127 128 128 113 109 81 71 94 101 137 130 141 130 128 138 141 132 125 123 119 114 116 113 114 111 111 114 118 116 116 114 116 104 102 104 105 107 112 111 109 111
146 350 242 64 148 62 125 145 137 111 77 75 97 72 65 84 102 128 135 128 125 129 130 137 130 126 123 125 124 122 130 125 123 122 119 116 113 119 114 112 112 111 110 110 123 138 130 115 135
71 166 274 189 169 143 126 132 126 112 76 93 108 106 82 92 113 125 130 130 127 127 136 131 132 132 131 128 125 124 126 131 129 130 130 126 125 122 121 125 124 118 108 99 109 139 137 135 165
123 179 61 103 117 162 140 143 114 96 102 99 100 110 95 127 128 129 130 130 125 129 122 132 137 140 137 135 132 122 116 132 128 134 140 139 140 141 145 145 140 130 106 81 72 76 90 319 326
156 134 226 153 100 133 135 124 117 121 126 103 129 118 138 144 140 137 130 126 124 133 113 104 140 149 147 137 125 113 116 125 134 145 154 156 156 165 168 167 167 143 124 94 73 50 9 356 353
45 90 253 126 146 205 127 131 132 137 106 125 138 151 155 153 143 135 133 133 137 134 136 156 163 138 123 117 123 121 120 124 142 154 165 165 171 188 200 193 218 196 184 163 132 128 68 25 354
224 86 146 132 137 133 121 121 136 114 134 144 150 138 150 148 137 133 133 134 138 148 159 160 153 146 156 143 153 144 146 152 160 162 167 170 347 285 272 247 220 224 229 209 222 15 20 18 359
287 69 238 136 121 124 134 136 125 125 142 113 114 123 144 148 150 147 150 154 149 158 163 164 169 176 206 178 145 153 187 171 42 6 0 0 303 293 283 281 270 251 241 223 241 43 45 35 355
211 262 117 127 123 132 139 134 139 142 142 150 146 148 153 153 159 156 160 157 164 166 160 186 181 189 207 6 157 200 150 128 73 45 116 83 14 323 250 8 269 239 256 35 345 94 136 115 299
311 298 119 118 133 141 147 126 141 147 153 144 143 146 152 157 165 168 159 155 152 162 168 187 188 190 230 192 190 199 143 138 130 230 128 100 41 25 12 230 218 179 70 129 49 112 52 295 243
335 321 113 128 114 120 158 129 116 124 134 144 145 157 165 167 171 175 158 147 151 157 182 191 164 166 220 217 204 213 163 178 142 178 301 144 48 47 14 344 354 131 110 136 161 227 91 271 40
310 321 107 99 98 98 103 114 113 137 142 152 164 172 170 175 173 162 159 165 159 149 190 177 168 176 175 153 163 214 123 236 148 195 236 60 112 351 102 220 100 288 122 173 158 194 99 275 43
342 17 102 113 111 110 103 115 136 151 155 162 175 183 182 159 171 175 176 168 166 165 158 167 165 150 149 158 138 107 208 208 219 229 167 166 205 249 129 29 24 10 85 153 105 48 28 344 291
31 31 33 240 123 166 99 155 151 157 162 175 181 185 181 174 163 161 173 162 168 152 160 165 163 149 141 151 147 207 250 188 234 265 277 219 202 161 59 61 11 359 35 132 142 132 142 224 244
332 264 351 12 345 132 100 144 164 164 168 189 193 191 195 158 153 160 164 167 169 164 160 158 151 159 157 152 176 180 80 1 194 216 228 245 273 115 114 92 353 327 28 111 155 196 163 184 223
170 193 122 56 322 29 118 158 167 173 170 194 188 150 157 163 177 174 164 162 166 169 166 149 157 168 161 146 62 28 88 164 142 236 137 97 345 347 168 110 60 53 119 76 14 180 219 173 208
137 126 113 74 43 82 261 161 175 184 184 196 176 167 167 178 183 174 164 158 166 173 168 162 156 182 154 131 122 3 263 70 27 55 91 64 71 55 31 22 348 74 84 107 186 191 334 316 287
157 145 114 116 117 89 338 168 217 219 209 197 186 174 173 167 174 172 167 163 170 173 180 166 172 171 181 156 154 185 143 130 124 323 62 49 64 49 79 64 25 348 326 359 343 358 289 269 28
214 177 158 143 130 15 98 289 246 241 230 199 192 183 174 173 176 178 174 174 173 177 179 174 172 172 176 172 133 40 60 50 31 49 76 54 51 84 87 74 49 6 320 315 356 339 53 312 322
208 178 153 152 140 197 184 243 251 216 235 209 196 182 184 176 174 177 181 176 182 188 178 169 164 162 174 165 142 177 183 131 235 183 96 79 50 65 92 68 60 46 8 19 19 15 345 9 296
225 172 170 165 112 102 201 326 264 130 210 223 201 189 185 181 171 179 181 184 191 182 176 167 163 162 161 174 158 137 108 107 144 27 17 98 65 37 53 64 55 13 20 333 356 328 318 255 226
63 148 151 123 79 309 197 179 274 197 206 194 211 192 185 181 178 180 181 183 185 181 167 153 144 117 68 89 83 138 143 143 149 155 58 24 52 23 39 12 45 37 4 9 356 356 329 307 288
97 71 155 136 285 225 154 179 249 219 189 153 173 181 182 184 182 178 178 183 179 172 164 147 147 88 87 83 81 80 84 100 111 94 115 77 35 29 16 8 8 18 3 6 2 350 340 331 335
207 158 160 208 189 191 298 227 257 266 164 138 120 68 117 105 182 188 191 181 173 156 129 108 92 79 74 84 96 101 103 94 94 91 83 48 58 50 19 15 11 20 17 5 2 347 343 340 332
224 161 190 130 96 106 197 249 308 46 90 89 80 72 65 56 68 88 89 96 107 105 107 111 102 103 92 81 80 67 73 79 80 73 73 63 30 41 31 22 15 6 16 22 7 359 354 344 342
144 173 77 7 196 297 342 353 247 240 73 76 89 97 89 80 68 66 73 85 88 87 89 85 88 88 80 81 74 81 78 78 74 65 64 59 51 43 38 34 22 360 12 11 6 356 330 346 340
326 226 91 122 135 166 144 243 327 77 83 81 68 61 69 67 68 64 66 70 76 71 73 83 83 82 70 71 68 86 76 78 86 88 80 69 38 22 30 12 10 16 5 357 352 334 338 340 334
177 213 140 125 255 228 143 255 49 100 95 87 67 48 65 73 76 79 75 71 73 81 77 69 93 87 76 360 9 51 69 76 81 65 75 85 87 14 14 10 3 359 344 350 334 342 347 340 333